Location: Maccacari
(45.1333°N, 11.1333°E)
Time: 03:37:28
(UTC+00:00)

Altair - Pass Details

Date: 02 February 2021
Orbit: 1501 x 1682 km, 47.2° (Epoch: 01 March)

Event Time Altitude Azimuth Distance (km) Brightness Sun altitude
Rises 01:14:09 0° 216° (SW) 4,767 - -54.1°
Reaches altitude 10° 01:17:20 10° 211° (SSW) 3,810 - -53.7°
Maximum altitude 01:26:31 48° 141° (SE) 2,053 - -52.5°
Exits shadow 01:31:15 30° 87° (E) 2,671 8.9 -51.9°
Drops below altitude 10° 01:35:59 10° 71° (ENE) 3,935 10.1 -51.2°
Sets 01:39:19 0° 66° (ENE) 4,935 10.8 -50.7°
